TimeCST,TemperatureF,Dew PointF,Humidity,Sea Level PressureIn,VisibilityMPH,Wind Direction,Wind SpeedMPH,Gust SpeedMPH,PrecipitationIn,Events,Conditions,WindDirDegrees,DateUTC
12:14 AM,37.4,33.8,87,29.93,10.0,South,15.0,21.9,N/A,,Clear,190,2012-11-08 06:14:00
12:34 AM,37.4,33.8,87,29.93,10.0,South,16.1,20.7,N/A,,Clear,190,2012-11-08 06:34:00
12:54 AM,37.4,33.8,87,29.92,10.0,South,15.0,20.7,N/A,,Clear,180,2012-11-08 06:54:00
1:14 AM,37.4,33.8,87,29.91,10.0,South,12.7,18.4,N/A,,Clear,190,2012-11-08 07:14:00
1:34 AM,37.4,33.8,87,29.90,10.0,South,15.0,-,N/A,,Clear,190,2012-11-08 07:34:00
1:54 AM,39.2,33.8,81,29.89,10.0,South,16.1,20.7,N/A,,Clear,190,2012-11-08 07:54:00
2:14 AM,37.4,33.8,87,29.88,10.0,South,16.1,23.0,N/A,,Clear,190,2012-11-08 08:14:00
2:34 AM,37.4,33.8,87,29.88,10.0,South,16.1,23.0,N/A,,Clear,180,2012-11-08 08:34:00
2:54 AM,37.4,33.8,87,29.87,10.0,South,13.8,21.9,N/A,,Clear,190,2012-11-08 08:54:00
3:13 AM,37.4,33.8,87,29.87,10.0,South,12.7,20.7,N/A,,Clear,190,2012-11-08 09:13:00
3:34 AM,37.4,33.8,87,29.86,10.0,South,13.8,17.3,N/A,,Clear,180,2012-11-08 09:34:00
3:54 AM,37.4,33.8,87,29.86,10.0,South,12.7,17.3,N/A,,Clear,190,2012-11-08 09:54:00
4:13 AM,37.4,33.8,87,29.86,10.0,South,10.4,17.3,N/A,,Clear,180,2012-11-08 10:13:00
4:34 AM,35.6,33.8,93,29.86,10.0,South,9.2,-,N/A,,Clear,180,2012-11-08 10:34:00
4:54 AM,35.6,33.8,93,29.86,10.0,South,10.4,-,N/A,,Clear,190,2012-11-08 10:54:00
5:14 AM,35.6,33.8,93,29.87,10.0,South,9.2,-,N/A,,Clear,180,2012-11-08 11:14:00
5:34 AM,35.6,33.8,93,29.86,10.0,South,8.1,-,N/A,,Clear,180,2012-11-08 11:34:00
5:54 AM,35.6,33.8,93,29.86,10.0,South,8.1,-,N/A,,Clear,180,2012-11-08 11:54:00
6:14 AM,35.6,33.8,93,29.87,10.0,South,6.9,-,N/A,,Clear,190,2012-11-08 12:14:00
6:54 AM,33.8,33.8,100,29.88,10.0,South,5.8,-,N/A,,Clear,170,2012-11-08 12:54:00
7:14 AM,35.6,33.8,93,29.89,10.0,South,5.8,-,N/A,,Clear,180,2012-11-08 13:14:00
7:34 AM,35.6,33.8,93,29.88,10.0,South,5.8,-,N/A,,Clear,180,2012-11-08 13:34:00
7:54 AM,35.6,33.8,93,29.89,10.0,South,5.8,-,N/A,,Clear,190,2012-11-08 13:54:00
8:14 AM,37.4,33.8,87,29.90,10.0,South,5.8,-,N/A,,Clear,190,2012-11-08 14:14:00
8:33 AM,37.4,33.8,87,29.91,10.0,South,5.8,-,N/A,,Clear,190,2012-11-08 14:33:00
8:54 AM,39.2,33.8,81,29.90,10.0,South,4.6,-,N/A,,Clear,190,2012-11-08 14:54:00
9:14 AM,41.0,33.8,76,29.91,10.0,SSW,5.8,-,N/A,,Clear,210,2012-11-08 15:14:00
9:34 AM,42.8,35.6,76,29.91,10.0,SW,8.1,-,N/A,,Clear,220,2012-11-08 15:34:00
9:54 AM,42.8,35.6,76,29.92,10.0,SW,6.9,-,N/A,,Clear,230,2012-11-08 15:54:00
10:34 AM,46.4,35.6,66,29.92,10.0,WNW,5.8,-,N/A,,Clear,290,2012-11-08 16:34:00
10:54 AM,48.2,35.6,62,29.92,10.0,WNW,6.9,-,N/A,,Clear,290,2012-11-08 16:54:00
11:14 AM,48.2,35.6,62,29.91,10.0,NNW,4.6,-,N/A,,Clear,330,2012-11-08 17:14:00
11:34 AM,50.0,35.6,58,29.91,10.0,NNW,5.8,-,N/A,,Clear,330,2012-11-08 17:34:00
11:54 AM,50.0,35.6,58,29.91,10.0,North,8.1,-,N/A,,Clear,350,2012-11-08 17:54:00
12:14 PM,51.8,35.6,54,29.91,10.0,North,6.9,-,N/A,,Clear,10,2012-11-08 18:14:00
12:34 PM,51.8,35.6,54,29.91,10.0,NNE,6.9,-,N/A,,Clear,30,2012-11-08 18:34:00
12:54 PM,51.8,35.6,54,29.92,10.0,NNE,10.4,-,N/A,,Clear,20,2012-11-08 18:54:00
1:14 PM,53.6,37.4,54,29.92,10.0,North,8.1,-,N/A,,Clear,10,2012-11-08 19:14:00
1:34 PM,53.6,37.4,54,29.92,10.0,NNE,11.5,16.1,N/A,,Clear,30,2012-11-08 19:34:00
1:54 PM,53.6,37.4,54,29.92,10.0,North,11.5,-,N/A,,Clear,10,2012-11-08 19:54:00
2:14 PM,53.6,39.2,58,29.93,10.0,North,17.3,-,N/A,,Clear,360,2012-11-08 20:14:00
2:34 PM,51.8,39.2,62,29.94,10.0,NNE,15.0,-,N/A,,Clear,30,2012-11-08 20:34:00
2:54 PM,51.8,39.2,62,29.95,10.0,NNE,12.7,-,N/A,,Clear,20,2012-11-08 20:54:00
3:14 PM,50.0,39.2,66,29.95,10.0,NNE,13.8,20.7,N/A,,Clear,20,2012-11-08 21:14:00
3:34 PM,48.2,39.2,71,29.96,10.0,North,16.1,-,N/A,,Clear,10,2012-11-08 21:34:00
3:54 PM,46.4,39.2,76,29.97,10.0,North,13.8,20.7,N/A,,Clear,360,2012-11-08 21:54:00
4:14 PM,44.6,39.2,81,29.97,10.0,North,13.8,19.6,N/A,,Clear,10,2012-11-08 22:14:00
4:34 PM,44.6,39.2,81,29.98,10.0,North,11.5,18.4,N/A,,Clear,10,2012-11-08 22:34:00
4:54 PM,42.8,39.2,87,29.98,10.0,North,15.0,19.6,N/A,,Clear,10,2012-11-08 22:54:00
5:14 PM,42.8,37.4,81,29.99,10.0,North,12.7,-,N/A,,Clear,10,2012-11-08 23:14:00
5:34 PM,41.0,37.4,87,29.99,10.0,North,12.7,-,N/A,,Clear,10,2012-11-08 23:34:00
5:54 PM,39.2,37.4,93,30.00,10.0,North,11.5,-,N/A,,Clear,10,2012-11-08 23:54:00
6:13 PM,39.2,37.4,93,30.01,10.0,NNE,11.5,-,N/A,,Clear,20,2012-11-09 00:13:00
6:34 PM,41.0,37.4,87,30.01,10.0,NNE,11.5,-,N/A,,Mostly Cloudy,20,2012-11-09 00:34:00
6:53 PM,41.0,37.4,87,30.02,10.0,NNE,15.0,-,N/A,,Overcast,30,2012-11-09 00:53:00
7:14 PM,39.2,37.4,93,30.02,10.0,NNE,10.4,-,N/A,,Overcast,30,2012-11-09 01:14:00
7:34 PM,39.2,35.6,87,30.02,10.0,NNE,8.1,-,N/A,,Scattered Clouds,30,2012-11-09 01:34:00
7:54 PM,39.2,35.6,87,30.02,10.0,NNE,9.2,-,N/A,,Mostly Cloudy,30,2012-11-09 01:54:00
8:14 PM,39.2,35.6,87,30.02,10.0,NNE,9.2,-,N/A,,Overcast,30,2012-11-09 02:14:00
8:34 PM,37.4,35.6,93,30.02,10.0,NNE,6.9,-,N/A,,Mostly Cloudy,20,2012-11-09 02:34:00
8:54 PM,37.4,35.6,93,30.03,10.0,NNE,5.8,-,N/A,,Clear,20,2012-11-09 02:54:00
9:14 PM,35.6,35.6,100,30.03,10.0,North,5.8,-,N/A,,Clear,10,2012-11-09 03:14:00
9:34 PM,35.6,35.6,100,30.04,10.0,North,5.8,-,N/A,,Clear,10,2012-11-09 03:34:00
9:54 PM,35.6,35.6,100,30.04,10.0,North,5.8,-,N/A,,Clear,10,2012-11-09 03:54:00
10:14 PM,35.6,35.6,100,30.04,10.0,North,6.9,-,N/A,,Clear,10,2012-11-09 04:14:00
10:34 PM,35.6,33.8,93,30.03,10.0,NNE,6.9,-,N/A,,Clear,20,2012-11-09 04:34:00
10:54 PM,35.6,33.8,93,30.03,10.0,NE,5.8,-,N/A,,Clear,40,2012-11-09 04:54:00
11:14 PM,35.6,33.8,93,30.03,10.0,NNE,5.8,-,N/A,,Clear,20,2012-11-09 05:14:00
11:34 PM,35.6,33.8,93,30.03,7.0,NE,6.9,-,N/A,,Clear,40,2012-11-09 05:34:00
11:54 PM,33.8,33.8,100,30.03,7.0,NE,8.1,-,N/A,,Clear,40,2012-11-09 05:54:00